Location: São Paulo
(23.5507°S, 46.6334°W)
Time: 19:03:06
(UTC-03:00)

Vanguard 2 Rocket - Pass Details

Date: 24 February 2026
Orbit: 553 x 3286 km, 32.9° (Epoch: 11 March)

Event Time Altitude Azimuth Distance (km) Brightness Sun altitude
Exits shadow 01:30:30 11° 111° (ESE) 3,103 9.9 -52.7°
Drops below altitude 10° 01:30:36 10° 111° (ESE) 3,140 9.9 -52.7°
Sets 01:34:44 0° 102° (ESE) 4,603 10.9 -52.2°
